Time,TemperatureF,DewpointF,PressureIn,WindDirection,WindDirectionDegrees,WindSpeedMPH,WindSpeedGustMPH,Humidity,HourlyPrecipIn,Conditions,Clouds,dailyrainin,SoftwareType,DateUTC
2013-01-13 00:02:00,25.6,4.6,30.20,SSW,192,0.0,1.0,40,0.00,,,0.00,Wunderground v.1.15,2013-01-13 08:02:00,
2013-01-13 00:08:00,25.5,4.5,30.20,SSW,192,0.0,1.0,40,0.00,,,0.00,Wunderground v.1.15,2013-01-13 08:08:00,
2013-01-13 00:14:00,25.4,4.4,30.20,SSW,192,0.0,0.0,40,0.00,,,0.00,Wunderground v.1.15,2013-01-13 08:14:00,
2013-01-13 00:20:00,25.2,4.2,30.20,SSW,192,0.0,0.0,40,0.00,,,0.00,Wunderground v.1.15,2013-01-13 08:20:00,
2013-01-13 00:26:00,25.0,4.6,30.20,SSW,192,0.0,0.0,41,0.00,,,0.00,Wunderground v.1.15,2013-01-13 08:26:00,
2013-01-13 00:32:00,24.9,5.0,30.20,SSW,192,0.0,0.0,42,0.00,,,0.00,Wunderground v.1.15,2013-01-13 08:32:00,
2013-01-13 00:38:00,24.8,4.4,30.20,SSW,192,0.0,2.0,41,0.00,,,0.00,Wunderground v.1.15,2013-01-13 08:38:00,
2013-01-13 00:44:00,24.8,4.9,30.20,SSW,192,1.0,1.0,42,0.00,,,0.00,Wunderground v.1.15,2013-01-13 08:44:00,
2013-01-13 00:50:00,24.8,4.9,30.20,SSW,192,1.0,1.0,42,0.00,,,0.00,Wunderground v.1.15,2013-01-13 08:50:00,
2013-01-13 00:56:00,24.8,4.4,30.21,SSW,192,0.0,1.0,41,0.00,,,0.00,Wunderground v.1.15,2013-01-13 08:56:00,
2013-01-13 01:02:00,24.6,3.1,30.21,SSW,192,0.0,0.0,39,0.00,,,0.00,Wunderground v.1.15,2013-01-13 09:02:00,
2013-01-13 01:08:00,24.3,2.9,30.21,SSW,192,0.0,1.0,39,0.00,,,0.00,Wunderground v.1.15,2013-01-13 09:08:00,
2013-01-13 01:14:00,23.9,3.0,30.21,SSW,192,0.0,0.0,40,0.00,,,0.00,Wunderground v.1.15,2013-01-13 09:14:00,
2013-01-13 01:20:00,23.4,3.1,30.21,SSW,194,1.0,2.0,41,0.00,,,0.00,Wunderground v.1.15,2013-01-13 09:20:00,
2013-01-13 01:26:00,23.0,3.3,30.21,SSW,194,2.0,2.0,42,0.00,,,0.00,Wunderground v.1.15,2013-01-13 09:26:00,
2013-01-13 01:32:00,22.6,1.9,30.21,SSW,194,1.0,1.0,40,0.00,,,0.00,Wunderground v.1.15,2013-01-13 09:32:00,
2013-01-13 01:38:00,22.1,1.9,30.22,SSW,194,2.0,3.0,41,0.00,,,0.00,Wunderground v.1.15,2013-01-13 09:38:00,
2013-01-13 01:44:00,21.7,2.1,30.22,SSW,194,2.0,2.0,42,0.00,,,0.00,Wunderground v.1.15,2013-01-13 09:44:00,
2013-01-13 01:50:00,21.3,2.2,30.22,SSW,194,2.0,2.0,43,0.00,,,0.00,Wunderground v.1.15,2013-01-13 09:50:00,
2013-01-13 01:56:00,21.0,2.0,30.23,SSW,194,2.0,2.0,43,0.00,,,0.00,Wunderground v.1.15,2013-01-13 09:56:00,
2013-01-13 02:02:00,20.7,1.2,30.23,SSW,194,2.0,3.0,42,0.00,,,0.00,Wunderground v.1.15,2013-01-13 10:02:00,
2013-01-13 02:08:00,20.4,1.4,30.22,SSW,194,2.0,3.0,43,0.00,,,0.00,Wunderground v.1.15,2013-01-13 10:08:00,
2013-01-13 02:14:00,20.0,1.5,30.22,SSW,194,3.0,3.0,44,0.00,,,0.00,Wunderground v.1.15,2013-01-13 10:14:00,
2013-01-13 02:20:00,19.8,1.8,30.22,SSW,194,2.0,2.0,45,0.00,,,0.00,Wunderground v.1.15,2013-01-13 10:20:00,
2013-01-13 02:26:00,19.7,2.2,30.22,SSW,194,2.0,2.0,46,0.00,,,0.00,Wunderground v.1.15,2013-01-13 10:26:00,
2013-01-13 02:32:00,19.7,3.6,30.22,SSW,194,1.0,1.0,49,0.00,,,0.00,Wunderground v.1.15,2013-01-13 10:32:00,
2013-01-13 02:38:00,19.8,3.7,30.22,SSW,194,1.0,2.0,49,0.00,,,0.00,Wunderground v.1.15,2013-01-13 10:38:00,
2013-01-13 02:44:00,20.2,3.6,30.22,SSW,194,1.0,2.0,48,0.00,,,0.00,Wunderground v.1.15,2013-01-13 10:44:00,
2013-01-13 02:50:00,20.6,3.5,30.22,SSW,194,2.0,3.0,47,0.00,,,0.00,Wunderground v.1.15,2013-01-13 10:50:00,
2013-01-13 02:56:00,20.8,3.7,30.22,SSW,194,2.0,3.0,47,0.00,,,0.00,Wunderground v.1.15,2013-01-13 10:56:00,
2013-01-13 03:02:00,20.9,3.3,30.21,SSW,194,3.0,3.0,46,0.00,,,0.00,Wunderground v.1.15,2013-01-13 11:02:00,
2013-01-13 03:08:00,20.8,2.8,30.21,SSW,194,3.0,3.0,45,0.00,,,0.00,Wunderground v.1.15,2013-01-13 11:08:00,
2013-01-13 03:14:00,20.8,3.7,30.22,SSW,195,3.0,4.0,47,0.00,,,0.00,Wunderground v.1.15,2013-01-13 11:14:00,
2013-01-13 03:20:00,20.9,3.8,30.22,SSW,200,4.0,5.0,47,0.00,,,0.00,Wunderground v.1.15,2013-01-13 11:20:00,
2013-01-13 03:26:00,21.0,3.4,30.22,SSW,205,5.0,5.0,46,0.00,,,0.00,Wunderground v.1.15,2013-01-13 11:26:00,
2013-01-13 03:32:00,20.9,2.9,30.21,SSW,205,4.0,5.0,45,0.00,,,0.00,Wunderground v.1.15,2013-01-13 11:32:00,
2013-01-13 03:38:00,20.8,3.7,30.21,SSW,205,3.0,5.0,47,0.00,,,0.00,Wunderground v.1.15,2013-01-13 11:38:00,
2013-01-13 03:44:00,20.8,3.7,30.21,SSW,205,2.0,3.0,47,0.00,,,0.00,Wunderground v.1.15,2013-01-13 11:44:00,
2013-01-13 03:50:00,20.7,3.2,30.21,SSW,205,2.0,3.0,46,0.00,,,0.00,Wunderground v.1.15,2013-01-13 11:50:00,
2013-01-13 03:56:00,20.5,3.0,30.21,SSW,205,2.0,3.0,46,0.00,,,0.00,Wunderground v.1.15,2013-01-13 11:56:00,
2013-01-13 04:02:00,20.5,3.9,30.21,SSW,205,1.0,1.0,48,0.00,,,0.00,Wunderground v.1.15,2013-01-13 12:02:00,
2013-01-13 04:08:00,20.8,3.7,30.21,SSW,205,2.0,3.0,47,0.00,,,0.00,Wunderground v.1.15,2013-01-13 12:08:00,
2013-01-13 04:14:00,20.8,2.8,30.21,SSW,205,2.0,2.0,45,0.00,,,0.00,Wunderground v.1.15,2013-01-13 12:14:00,
2013-01-13 04:20:00,20.8,3.2,30.21,SSW,205,2.0,2.0,46,0.00,,,0.00,Wunderground v.1.15,2013-01-13 12:20:00,
2013-01-13 04:26:00,21.0,3.0,30.21,SSW,205,2.0,2.0,45,0.00,,,0.00,Wunderground v.1.15,2013-01-13 12:26:00,
2013-01-13 04:32:00,21.1,2.6,30.21,SSW,205,1.0,1.0,44,0.00,,,0.00,Wunderground v.1.15,2013-01-13 12:32:00,
2013-01-13 04:38:00,21.2,2.6,30.21,SSW,205,1.0,4.0,44,0.00,,,0.00,Wunderground v.1.15,2013-01-13 12:38:00,
2013-01-13 04:44:00,21.4,2.3,30.21,SSW,205,4.0,4.0,43,0.00,,,0.00,Wunderground v.1.15,2013-01-13 12:44:00,
2013-01-13 04:50:00,21.6,2.0,30.21,SSW,205,3.0,3.0,42,0.00,,,0.00,Wunderground v.1.15,2013-01-13 12:50:00,
2013-01-13 04:56:00,21.6,2.0,30.21,SSW,205,3.0,3.0,42,0.00,,,0.00,Wunderground v.1.15,2013-01-13 12:56:00,
2013-01-13 05:02:00,21.8,2.2,30.21,SSW,205,3.0,3.0,42,0.00,,,0.00,Wunderground v.1.15,2013-01-13 13:02:00,
2013-01-13 05:08:00,22.0,2.4,30.21,SSW,205,3.0,3.0,42,0.00,,,0.00,Wunderground v.1.15,2013-01-13 13:08:00,
2013-01-13 05:14:00,21.9,1.8,30.22,SSW,205,3.0,3.0,41,0.00,,,0.00,Wunderground v.1.15,2013-01-13 13:14:00,
2013-01-13 05:20:00,21.9,2.3,30.21,SSW,205,1.0,1.0,42,0.00,,,0.00,Wunderground v.1.15,2013-01-13 13:20:00,
2013-01-13 05:26:00,21.8,1.7,30.21,SSW,205,0.0,1.0,41,0.00,,,0.00,Wunderground v.1.15,2013-01-13 13:26:00,
2013-01-13 05:32:00,21.6,2.0,30.21,SSW,205,0.0,0.0,42,0.00,,,0.00,Wunderground v.1.15,2013-01-13 13:32:00,
2013-01-13 05:38:00,21.5,1.9,30.21,SSW,205,0.0,0.0,42,0.00,,,0.00,Wunderground v.1.15,2013-01-13 13:38:00,
2013-01-13 05:44:00,21.3,2.2,30.21,SSW,205,0.0,0.0,43,0.00,,,0.00,Wunderground v.1.15,2013-01-13 13:44:00,
2013-01-13 05:50:00,21.1,1.6,30.21,SSW,205,0.0,0.0,42,0.00,,,0.00,Wunderground v.1.15,2013-01-13 13:50:00,
2013-01-13 05:56:00,21.1,1.6,30.21,SSW,205,2.0,3.0,42,0.00,,,0.00,Wunderground v.1.15,2013-01-13 13:56:00,
2013-01-13 06:02:00,21.0,2.0,30.22,SSW,205,2.0,2.0,43,0.00,,,0.00,Wunderground v.1.15,2013-01-13 14:02:00,
2013-01-13 06:08:00,20.9,1.9,30.22,SSW,205,0.0,2.0,43,0.00,,,0.00,Wunderground v.1.15,2013-01-13 14:08:00,
2013-01-13 06:14:00,20.9,1.4,30.23,SSW,205,0.0,0.0,42,0.00,,,0.00,Wunderground v.1.15,2013-01-13 14:14:00,
2013-01-13 06:20:00,20.8,1.3,30.23,SSW,205,0.0,0.0,42,0.00,,,0.00,Wunderground v.1.15,2013-01-13 14:20:00,
2013-01-13 06:26:00,20.7,1.2,30.24,SSW,205,0.0,1.0,42,0.00,,,0.00,Wunderground v.1.15,2013-01-13 14:26:00,
2013-01-13 06:32:00,20.5,0.5,30.24,SSW,205,1.0,2.0,41,0.00,,,0.00,Wunderground v.1.15,2013-01-13 14:32:00,
2013-01-13 06:38:00,20.2,0.7,30.23,SSW,205,1.0,2.0,42,0.00,,,0.00,Wunderground v.1.15,2013-01-13 14:38:00,
2013-01-13 06:44:00,19.8,0.4,30.24,SSW,205,1.0,1.0,42,0.00,,,0.00,Wunderground v.1.15,2013-01-13 14:44:00,
2013-01-13 06:50:00,19.7,0.3,30.24,SSW,205,1.0,1.0,42,0.00,,,0.00,Wunderground v.1.15,2013-01-13 14:50:00,
2013-01-13 06:56:00,19.4,1.0,30.24,SSW,205,1.0,2.0,44,0.00,,,0.00,Wunderground v.1.15,2013-01-13 14:56:00,
2013-01-13 07:02:00,19.0,0.6,30.24,SSW,205,1.0,1.0,44,0.00,,,0.00,Wunderground v.1.15,2013-01-13 15:02:00,
2013-01-13 07:08:00,18.7,0.8,30.24,SSW,205,0.0,1.0,45,0.00,,,0.00,Wunderground v.1.15,2013-01-13 15:08:00,
2013-01-13 07:14:00,18.3,0.5,30.24,SSW,205,1.0,2.0,45,0.00,,,0.00,Wunderground v.1.15,2013-01-13 15:14:00,
2013-01-13 07:20:00,17.9,0.6,30.25,SSW,205,2.0,2.0,46,0.00,,,0.00,Wunderground v.1.15,2013-01-13 15:20:00,
2013-01-13 07:26:00,17.7,0.4,30.25,SSW,205,1.0,2.0,46,0.00,,,0.00,Wunderground v.1.15,2013-01-13 15:26:00,
2013-01-13 07:32:00,17.5,-0.3,30.25,SSW,205,0.0,0.0,45,0.00,,,0.00,Wunderground v.1.15,2013-01-13 15:32:00,
2013-01-13 07:38:00,17.2,-0.1,30.26,SSW,205,0.0,0.0,46,0.00,,,0.00,Wunderground v.1.15,2013-01-13 15:38:00,
2013-01-13 07:44:00,17.1,0.3,30.26,SSW,205,0.0,0.0,47,0.00,,,0.00,Wunderground v.1.15,2013-01-13 15:44:00,
2013-01-13 07:50:00,17.4,1.0,30.26,SSW,205,0.0,2.0,48,0.00,,,0.00,Wunderground v.1.15,2013-01-13 15:50:00,
2013-01-13 07:56:00,17.8,0.9,30.26,SSW,205,1.0,2.0,47,0.00,,,0.00,Wunderground v.1.15,2013-01-13 15:56:00,
2013-01-13 08:02:00,18.3,1.4,30.26,SSW,207,0.0,2.0,47,0.00,,,0.00,Wunderground v.1.15,2013-01-13 16:02:00,
2013-01-13 08:08:00,18.8,1.9,30.26,SSW,209,1.0,2.0,47,0.00,,,0.00,Wunderground v.1.15,2013-01-13 16:08:00,
2013-01-13 08:14:00,19.8,2.3,30.26,SSW,209,0.0,1.0,46,0.00,,,0.00,Wunderground v.1.15,2013-01-13 16:14:00,
2013-01-13 08:20:00,21.2,3.1,30.26,SSW,209,0.0,0.0,45,0.00,,,0.00,Wunderground v.1.15,2013-01-13 16:20:00,
2013-01-13 08:26:00,22.5,3.3,30.26,SSW,209,0.0,0.0,43,0.00,,,0.00,Wunderground v.1.15,2013-01-13 16:26:00,
2013-01-13 08:32:00,24.0,3.7,30.26,SSW,209,0.0,0.0,41,0.00,,,0.00,Wunderground v.1.15,2013-01-13 16:32:00,
2013-01-13 08:38:00,25.2,3.7,30.26,SSW,209,0.0,2.0,39,0.00,,,0.00,Wunderground v.1.15,2013-01-13 16:38:00,
2013-01-13 08:44:00,25.9,4.3,30.27,SSW,211,1.0,2.0,39,0.00,,,0.00,Wunderground v.1.15,2013-01-13 16:44:00,
2013-01-13 08:50:00,26.8,4.0,30.26,SSW,211,0.0,0.0,37,0.00,,,0.00,Wunderground v.1.15,2013-01-13 16:50:00,
2013-01-13 08:56:00,27.7,4.2,30.27,SSW,211,0.0,0.0,36,0.00,,,0.00,Wunderground v.1.15,2013-01-13 16:56:00,
2013-01-13 09:02:00,28.8,4.5,30.27,SSW,211,0.0,0.0,35,0.00,,,0.00,Wunderground v.1.15,2013-01-13 17:02:00,
2013-01-13 09:08:00,29.7,4.7,30.26,SSW,211,0.0,0.0,34,0.00,,,0.00,Wunderground v.1.15,2013-01-13 17:08:00,
2013-01-13 09:14:00,30.7,4.9,30.27,SSW,211,0.0,0.0,33,0.00,,,0.00,Wunderground v.1.15,2013-01-13 17:14:00,
2013-01-13 09:20:00,31.9,5.3,30.26,SSW,211,0.0,0.0,32,0.00,,,0.00,Wunderground v.1.15,2013-01-13 17:20:00,
2013-01-13 09:26:00,32.5,5.9,30.26,SSW,211,0.0,0.0,32,0.00,,,0.00,Wunderground v.1.15,2013-01-13 17:26:00,
2013-01-13 09:32:00,32.7,6.0,30.26,SSW,211,0.0,0.0,32,0.00,,,0.00,Wunderground v.1.15,2013-01-13 17:32:00,
2013-01-13 09:38:00,33.7,6.2,30.25,SSW,211,0.0,0.0,31,0.00,,,0.00,Wunderground v.1.15,2013-01-13 17:38:00,
2013-01-13 09:44:00,34.4,6.8,30.25,SSW,211,0.0,0.0,31,0.00,,,0.00,Wunderground v.1.15,2013-01-13 17:44:00,
2013-01-13 09:50:00,35.9,6.7,30.25,SSW,211,0.0,1.0,29,0.00,,,0.00,Wunderground v.1.15,2013-01-13 17:50:00,
2013-01-13 09:56:00,36.2,6.9,30.25,SSW,210,1.0,1.0,29,0.00,,,0.00,Wunderground v.1.15,2013-01-13 17:56:00,
2013-01-13 10:02:00,36.3,6.3,30.25,SSW,210,1.0,1.0,28,0.00,,,0.00,Wunderground v.1.15,2013-01-13 18:02:00,
2013-01-13 10:08:00,36.3,6.3,30.25,SSW,200,1.0,3.0,28,0.00,,,0.00,Wunderground v.1.15,2013-01-13 18:08:00,
2013-01-13 10:14:00,36.6,6.5,30.24,SSW,196,2.0,3.0,28,0.00,,,0.00,Wunderground v.1.15,2013-01-13 18:14:00,
2013-01-13 10:20:00,37.0,6.9,30.24,SSW,194,2.0,2.0,28,0.00,,,0.00,Wunderground v.1.15,2013-01-13 18:20:00,
2013-01-13 10:26:00,37.5,6.5,30.23,South,170,2.0,4.0,27,0.00,,,0.00,Wunderground v.1.15,2013-01-13 18:26:00,
2013-01-13 10:32:00,37.7,6.7,30.23,ENE,68,3.0,3.0,27,0.00,,,0.00,Wunderground v.1.15,2013-01-13 18:32:00,
2013-01-13 10:38:00,37.7,6.7,30.22,NE,46,4.0,7.0,27,0.00,,,0.00,Wunderground v.1.15,2013-01-13 18:38:00,
2013-01-13 10:44:00,38.0,6.9,30.21,ENE,57,4.0,7.0,27,0.00,,,0.00,Wunderground v.1.15,2013-01-13 18:44:00,
2013-01-13 10:50:00,38.4,6.4,30.20,ENE,57,4.0,4.0,26,0.00,,,0.00,Wunderground v.1.15,2013-01-13 18:50:00,
2013-01-13 10:56:00,38.8,6.8,30.20,NE,37,4.0,6.0,26,0.00,,,0.00,Wunderground v.1.15,2013-01-13 18:56:00,
2013-01-13 11:02:00,39.4,6.4,30.19,ENE,59,4.0,7.0,25,0.00,,,0.00,Wunderground v.1.15,2013-01-13 19:02:00,
2013-01-13 11:08:00,39.8,5.9,30.19,NE,40,5.0,7.0,24,0.00,,,0.00,Wunderground v.1.15,2013-01-13 19:08:00,
2013-01-13 11:14:00,40.0,6.0,30.18,NNE,28,4.0,6.0,24,0.00,,,0.00,Wunderground v.1.15,2013-01-13 19:14:00,
2013-01-13 11:20:00,40.3,6.3,30.18,ENE,60,4.0,4.0,24,0.00,,,0.00,Wunderground v.1.15,2013-01-13 19:20:00,
2013-01-13 11:26:00,40.6,6.6,30.17,NNE,28,4.0,6.0,24,0.00,,,0.00,Wunderground v.1.15,2013-01-13 19:26:00,
2013-01-13 11:32:00,40.9,5.9,30.17,NE,35,5.0,5.0,23,0.00,,,0.00,Wunderground v.1.15,2013-01-13 19:32:00,
2013-01-13 11:38:00,41.2,6.1,30.16,NNE,22,4.0,6.0,23,0.00,,,0.00,Wunderground v.1.15,2013-01-13 19:38:00,
2013-01-13 11:44:00,41.8,6.6,30.16,NE,44,4.0,4.0,23,0.00,,,0.00,Wunderground v.1.15,2013-01-13 19:44:00,
2013-01-13 11:50:00,42.1,6.9,30.16,NNE,18,5.0,5.0,23,0.00,,,0.00,Wunderground v.1.15,2013-01-13 19:50:00,
2013-01-13 11:56:00,42.6,7.3,30.16,North,11,5.0,6.0,23,0.00,,,0.00,Wunderground v.1.15,2013-01-13 19:56:00,
2013-01-13 12:02:00,42.7,7.4,30.15,NE,36,6.0,9.0,23,0.00,,,0.00,Wunderground v.1.15,2013-01-13 20:02:00,
2013-01-13 12:08:00,42.7,7.4,30.14,NNE,22,6.0,9.0,23,0.00,,,0.00,Wunderground v.1.15,2013-01-13 20:08:00,
2013-01-13 12:14:00,43.1,7.7,30.14,North,360,5.0,6.0,23,0.00,,,0.00,Wunderground v.1.15,2013-01-13 20:14:00,
2013-01-13 12:20:00,43.9,8.4,30.14,NE,46,4.0,9.0,23,0.00,,,0.00,Wunderground v.1.15,2013-01-13 20:20:00,
2013-01-13 12:26:00,43.8,8.3,30.14,North,350,5.0,9.0,23,0.00,,,0.00,Wunderground v.1.15,2013-01-13 20:26:00,
2013-01-13 12:32:00,44.0,7.5,30.14,NNE,14,5.0,9.0,22,0.00,,,0.00,Wunderground v.1.15,2013-01-13 20:32:00,
2013-01-13 12:38:00,44.1,7.6,30.14,NNE,29,7.0,12.0,22,0.00,,,0.00,Wunderground v.1.15,2013-01-13 20:38:00,
2013-01-13 12:44:00,44.3,7.8,30.14,NNE,21,10.0,12.0,22,0.00,,,0.00,Wunderground v.1.15,2013-01-13 20:44:00,
2013-01-13 12:50:00,44.7,8.1,30.14,NNE,13,9.0,9.0,22,0.00,,,0.00,Wunderground v.1.15,2013-01-13 20:50:00,
2013-01-13 12:56:00,44.4,7.9,30.14,NNW,348,5.0,9.0,22,0.00,,,0.00,Wunderground v.1.15,2013-01-13 20:56:00,
2013-01-13 13:02:00,44.9,8.3,30.14,ENE,62,4.0,7.0,22,0.00,,,0.00,Wunderground v.1.15,2013-01-13 21:02:00,
2013-01-13 13:08:00,44.8,8.2,30.15,NNE,22,7.0,10.0,22,0.00,,,0.00,Wunderground v.1.15,2013-01-13 21:08:00,
2013-01-13 13:14:00,43.9,7.4,30.15,ENE,75,10.0,15.0,22,0.00,,,0.00,Wunderground v.1.15,2013-01-13 21:14:00,
2013-01-13 13:20:00,42.7,6.4,30.15,NE,36,12.0,12.0,22,0.00,,,0.00,Wunderground v.1.15,2013-01-13 21:20:00,
2013-01-13 13:26:00,42.2,7.0,30.15,NE,49,10.0,12.0,23,0.00,,,0.00,Wunderground v.1.15,2013-01-13 21:26:00,
2013-01-13 13:32:00,41.5,6.4,30.15,NE,35,9.0,14.0,23,0.00,,,0.00,Wunderground v.1.15,2013-01-13 21:32:00,
2013-01-13 13:38:00,40.9,5.9,30.15,NE,48,9.0,14.0,23,0.00,,,0.00,Wunderground v.1.15,2013-01-13 21:38:00,
2013-01-13 13:44:00,40.4,6.4,30.15,North,5,8.0,9.0,24,0.00,,,0.00,Wunderground v.1.15,2013-01-13 21:44:00,
2013-01-13 13:50:00,40.2,6.2,30.15,NNE,25,9.0,9.0,24,0.00,,,0.00,Wunderground v.1.15,2013-01-13 21:50:00,
2013-01-13 13:56:00,40.2,6.2,30.14,NNE,21,8.0,11.0,24,0.00,,,0.00,Wunderground v.1.15,2013-01-13 21:56:00,
2013-01-13 14:02:00,40.5,6.5,30.14,NNE,24,8.0,8.0,24,0.00,,,0.00,Wunderground v.1.15,2013-01-13 22:02:00,
2013-01-13 14:08:00,40.4,6.4,30.14,NE,55,8.0,10.0,24,0.00,,,0.00,Wunderground v.1.15,2013-01-13 22:08:00,
2013-01-13 14:14:00,40.2,6.2,30.14,ENE,64,8.0,12.0,24,0.00,,,0.00,Wunderground v.1.15,2013-01-13 22:14:00,
2013-01-13 14:20:00,40.2,6.2,30.14,ENE,75,7.0,7.0,24,0.00,,,0.00,Wunderground v.1.15,2013-01-13 22:20:00,
2013-01-13 14:26:00,40.2,6.2,30.14,NE,39,7.0,7.0,24,0.00,,,0.00,Wunderground v.1.15,2013-01-13 22:26:00,
2013-01-13 14:32:00,40.1,6.1,30.14,NE,47,7.0,10.0,24,0.00,,,0.00,Wunderground v.1.15,2013-01-13 22:32:00,
2013-01-13 15:44:00,40.8,5.8,30.16,ENE,63,7.0,7.0,23,0.00,,,0.00,Wunderground v.1.15,2013-01-13 23:44:00,
2013-01-13 15:50:00,40.4,6.4,30.16,ENE,71,8.0,11.0,24,0.00,,,0.00,Wunderground v.1.15,2013-01-13 23:50:00,
2013-01-13 17:56:00,34.0,4.3,30.19,ESE,110,5.0,9.0,28,0.00,,,0.00,Wunderground v.1.15,2013-01-14 01:56:00,
2013-01-13 18:02:00,33.8,4.1,30.19,ESE,122,6.0,6.0,28,0.00,,,0.00,Wunderground v.1.15,2013-01-14 02:02:00,
2013-01-13 18:08:00,33.7,4.0,30.19,ESE,119,6.0,6.0,28,0.00,,,0.00,Wunderground v.1.15,2013-01-14 02:08:00,
2013-01-13 18:14:00,33.4,3.7,30.20,ESE,114,6.0,7.0,28,0.00,,,0.00,Wunderground v.1.15,2013-01-14 02:14:00,
2013-01-13 18:20:00,33.2,3.6,30.20,ESE,110,6.0,6.0,28,0.00,,,0.00,Wunderground v.1.15,2013-01-14 02:20:00,
2013-01-13 18:26:00,33.0,3.4,30.20,ESE,121,6.0,6.0,28,0.00,,,0.00,Wunderground v.1.15,2013-01-14 02:26:00,
2013-01-13 18:32:00,32.9,3.3,30.20,ESE,113,5.0,5.0,28,0.00,,,0.00,Wunderground v.1.15,2013-01-14 02:32:00,
2013-01-13 18:38:00,32.7,3.1,30.20,ESE,111,4.0,5.0,28,0.00,,,0.00,Wunderground v.1.15,2013-01-14 02:38:00,
2013-01-13 18:44:00,32.5,3.7,30.20,ESE,106,6.0,8.0,29,0.00,,,0.00,Wunderground v.1.15,2013-01-14 02:44:00,
2013-01-13 18:50:00,32.5,3.7,30.20,ESE,113,6.0,6.0,29,0.00,,,0.00,Wunderground v.1.15,2013-01-14 02:50:00,
2013-01-13 18:56:00,32.5,3.7,30.20,East,98,4.0,6.0,29,0.00,,,0.00,Wunderground v.1.15,2013-01-14 02:56:00,
2013-01-13 19:02:00,32.4,3.6,30.21,ESE,111,3.0,5.0,29,0.00,,,0.00,Wunderground v.1.15,2013-01-14 03:02:00,
2013-01-13 19:08:00,32.4,3.6,30.21,East,101,4.0,10.0,29,0.00,,,0.00,Wunderground v.1.15,2013-01-14 03:08:00,
2013-01-13 19:14:00,32.5,3.7,30.21,NE,53,4.0,4.0,29,0.00,,,0.00,Wunderground v.1.15,2013-01-14 03:14:00,
2013-01-13 19:20:00,32.4,3.6,30.21,NE,51,3.0,3.0,29,0.00,,,0.00,Wunderground v.1.15,2013-01-14 03:20:00,
2013-01-13 19:26:00,32.2,3.4,30.22,NE,51,3.0,4.0,29,0.00,,,0.00,Wunderground v.1.15,2013-01-14 03:26:00,
2013-01-13 19:32:00,31.9,3.2,30.22,NE,41,3.0,3.0,29,0.00,,,0.00,Wunderground v.1.15,2013-01-14 03:32:00,
2013-01-13 19:38:00,31.5,2.8,30.22,NE,45,3.0,4.0,29,0.00,,,0.00,Wunderground v.1.15,2013-01-14 03:38:00,
2013-01-13 19:44:00,31.2,2.6,30.22,ENE,69,3.0,4.0,29,0.00,,,0.00,Wunderground v.1.15,2013-01-14 03:44:00,
2013-01-13 19:50:00,30.9,3.0,30.22,East,86,3.0,3.0,30,0.00,,,0.00,Wunderground v.1.15,2013-01-14 03:50:00,
2013-01-13 19:56:00,30.6,2.8,30.22,East,86,2.0,3.0,30,0.00,,,0.00,Wunderground v.1.15,2013-01-14 03:56:00,
2013-01-13 20:02:00,30.2,2.4,30.23,East,86,0.0,1.0,30,0.00,,,0.00,Wunderground v.1.15,2013-01-14 04:02:00,
2013-01-13 20:08:00,29.7,2.0,30.23,East,92,0.0,3.0,30,0.00,,,0.00,Wunderground v.1.15,2013-01-14 04:08:00,
2013-01-13 20:14:00,29.3,1.6,30.23,SSE,149,2.0,4.0,30,0.00,,,0.00,Wunderground v.1.15,2013-01-14 04:14:00,
2013-01-13 20:20:00,29.0,1.4,30.23,SSE,149,2.0,2.0,30,0.00,,,0.00,Wunderground v.1.15,2013-01-14 04:20:00,
2013-01-13 20:26:00,28.8,1.9,30.23,SSE,149,1.0,2.0,31,0.00,,,0.00,Wunderground v.1.15,2013-01-14 04:26:00,
2013-01-13 20:32:00,28.6,1.7,30.23,SSE,149,1.0,2.0,31,0.00,,,0.00,Wunderground v.1.15,2013-01-14 04:32:00,
2013-01-13 20:38:00,28.3,1.5,30.23,SSE,148,0.0,2.0,31,0.00,,,0.00,Wunderground v.1.15,2013-01-14 04:38:00,
2013-01-13 20:44:00,28.1,2.0,30.24,SSE,148,1.0,2.0,32,0.00,,,0.00,Wunderground v.1.15,2013-01-14 04:44:00,
2013-01-13 20:50:00,28.0,1.9,30.24,SSE,148,1.0,1.0,32,0.00,,,0.00,Wunderground v.1.15,2013-01-14 04:50:00,
2013-01-13 20:56:00,27.8,1.7,30.24,SSE,148,0.0,1.0,32,0.00,,,0.00,Wunderground v.1.15,2013-01-14 04:56:00,
2013-01-13 21:00:00,27.6,1.5,30.25,SSE,148,0.0,0.0,32,0.00,,,0.00,Wunderground v.1.15,2013-01-14 05:00:00,
2013-01-13 21:06:00,27.3,1.3,30.25,SSE,148,0.0,0.0,32,0.00,,,0.00,Wunderground v.1.15,2013-01-14 05:06:00,
2013-01-13 21:10:00,27.0,1.0,30.25,WNW,300,1.0,1.0,32,0.00,,,0.00,Wunderground v.1.15,2013-01-14 05:10:00,
2013-01-13 21:12:00,26.8,0.8,30.25,WNW,300,1.0,1.0,32,0.00,,,0.00,Wunderground v.1.15,2013-01-14 05:12:00,
2013-01-13 21:18:00,26.6,0.7,30.25,WNW,302,1.0,3.0,32,0.00,,,0.00,Wunderground v.1.15,2013-01-14 05:18:00,
2013-01-13 21:24:00,26.3,0.4,30.25,NW,310,2.0,4.0,32,0.00,,,0.00,Wunderground v.1.15,2013-01-14 05:24:00,
2013-01-13 21:30:00,26.0,0.8,30.25,NW,304,2.0,4.0,33,0.00,,,0.00,Wunderground v.1.15,2013-01-14 05:30:00,
2013-01-13 21:36:00,25.8,-0.1,30.26,NW,304,2.0,4.0,32,0.00,,,0.00,Wunderground v.1.15,2013-01-14 05:36:00,
2013-01-13 21:42:00,25.4,0.2,30.26,NW,304,0.0,1.0,33,0.00,,,0.00,Wunderground v.1.15,2013-01-14 05:42:00,
2013-01-13 21:48:00,25.2,0.1,30.26,NW,304,1.0,2.0,33,0.00,,,0.00,Wunderground v.1.15,2013-01-14 05:48:00,
2013-01-13 21:54:00,25.1,0.0,30.26,WNW,297,2.0,3.0,33,0.00,,,0.00,Wunderground v.1.15,2013-01-14 05:54:00,
2013-01-13 22:02:00,25.0,-0.1,30.27,WNW,290,3.0,4.0,33,0.00,,,0.00,Wunderground v.1.15,2013-01-14 06:02:00,
2013-01-13 22:08:00,24.9,0.4,30.27,WNW,290,2.0,4.0,34,0.00,,,0.00,Wunderground v.1.15,2013-01-14 06:08:00,
2013-01-13 22:14:00,24.9,0.4,30.27,WNW,290,1.0,4.0,34,0.00,,,0.00,Wunderground v.1.15,2013-01-14 06:14:00,
2013-01-13 22:20:00,24.9,0.4,30.27,WNW,290,3.0,3.0,34,0.00,,,0.00,Wunderground v.1.15,2013-01-14 06:20:00,
2013-01-13 22:26:00,25.0,0.5,30.28,WNW,290,3.0,3.0,34,0.00,,,0.00,Wunderground v.1.15,2013-01-14 06:26:00,
2013-01-13 22:32:00,25.1,-0.7,30.28,WNW,288,3.0,3.0,32,0.00,,,0.00,Wunderground v.1.15,2013-01-14 06:32:00,
2013-01-13 22:38:00,25.0,-0.1,30.28,WNW,289,3.0,3.0,33,0.00,,,0.00,Wunderground v.1.15,2013-01-14 06:38:00,
2013-01-13 22:44:00,24.6,-0.5,30.28,WNW,288,3.0,3.0,33,0.00,,,0.00,Wunderground v.1.15,2013-01-14 06:44:00,
2013-01-13 22:50:00,24.4,-0.6,30.29,WNW,289,3.0,3.0,33,0.00,,,0.00,Wunderground v.1.15,2013-01-14 06:50:00,
2013-01-13 22:56:00,24.3,-0.7,30.29,WNW,290,2.0,3.0,33,0.00,,,0.00,Wunderground v.1.15,2013-01-14 06:56:00,
2013-01-13 23:02:00,24.1,-0.9,30.29,WNW,294,3.0,4.0,33,0.00,,,0.00,Wunderground v.1.15,2013-01-14 07:02:00,
2013-01-13 23:08:00,24.0,-0.4,30.29,NNW,346,4.0,7.0,34,0.00,,,0.00,Wunderground v.1.15,2013-01-14 07:08:00,
2013-01-13 23:14:00,24.2,-0.8,30.29,NNE,18,5.0,9.0,33,0.00,,,0.00,Wunderground v.1.15,2013-01-14 07:14:00,
2013-01-13 23:20:00,24.5,-0.5,30.29,North,5,4.0,11.0,33,0.00,,,0.00,Wunderground v.1.15,2013-01-14 07:20:00,
2013-01-13 23:26:00,25.0,-0.1,30.30,East,92,4.0,11.0,33,0.00,,,0.00,Wunderground v.1.15,2013-01-14 07:26:00,
2013-01-13 23:32:00,25.4,-0.4,30.30,North,9,5.0,12.0,32,0.00,,,0.00,Wunderground v.1.15,2013-01-14 07:32:00,
2013-01-13 23:38:00,26.6,0.7,30.30,North,360,8.0,12.0,32,0.00,,,0.00,Wunderground v.1.15,2013-01-14 07:38:00,
2013-01-13 23:44:00,27.4,0.7,30.30,NNE,26,6.0,9.0,31,0.00,,,0.00,Wunderground v.1.15,2013-01-14 07:44:00,
2013-01-13 23:50:00,27.6,0.2,30.30,ENE,69,3.0,3.0,30,0.00,,,0.00,Wunderground v.1.15,2013-01-14 07:50:00,
2013-01-13 23:56:00,27.6,0.2,30.30,ENE,69,1.0,3.0,30,0.00,,,0.00,Wunderground v.1.15,2013-01-14 07:56:00,